Weather History for KDUC - November, 2013

Change the Weather History Date:

Monday, November 4, 2013

  Actual Average (KLAW) Record (KLAW)
Temperature  
Mean Temperature 58 °F -  
Max Temperature 66 °F 64 °F 88 °F (2005)
Min Temperature 51 °F 40 °F 22 °F (1950)
Degree Days  
Heating Degree Days 6    
Growing Degree Days 8 (Base 50)    
Moisture  
Dew Point 54 °F    
Average Humidity 88    
Maximum Humidity 100    
Minimum Humidity 68    
Precipitation  
Precipitation 0.06 in - - ()
Sea Level Pressure  
Sea Level Pressure 29.99 in    
Wind  
Wind Speed 11 mph (SSE)    
Max Wind Speed 21 mph    
Max Gust Speed 24 mph    
Visibility 10 miles    
Events Rain    
Averages and records for this station are not official NWS values.
T = Trace of Precipitation, MM = Missing Value Source: NWS Daily Summary

Daily Weather History Graph

Daily Weather History Graph

Search for Another Location

Airport or City:

Trip Planner

Search our weather history database for the weather conditions in past years. The results will help you decide how hot, cold, wet, or windy it might be!

Date:

Astronomy

Nov. 04, 2013 Rise Set
Actual Time 6:55 AM CST 5:35 PM CST
Civil Twilight 6:28 AM CST 6:01 PM CST
Nautical Twilight 5:59 AM CST 6:31 PM CST
Astronomical Twilight 5:29 AM CST 7:00 PM CST
Moon 8:04 AM CST (11/4) 6:44 PM CST (11/4)
Length of Visible Light 11h 32m
Length of Day
10h 40m
New Moon, 2% of the Moon is Illuminated
Nov 4
New Moon
Nov 9
First Quarter
Nov 17
Full
Nov 25
Last Quarter
Dec 2
New

Hourly Weather History & Observations

Time (CST) Temp. Dew Point Humidity Pressure Visibility Wind Dir Wind Speed Gust Speed Precip Events Conditions
12:15 AM 51.8 °F 50.0 °F 94% 29.99 in 10.0 mi South 9.2 mph - 0.03 in Rain Light Rain
12:35 AM 51.8 °F 50.0 °F 94% 29.98 in 10.0 mi SSE 8.1 mph - 0.06 in Rain Light Rain
12:55 AM 51.8 °F 50.0 °F 94% 29.97 in 10.0 mi SSE 10.4 mph - 0.06 in   Overcast
1:15 AM 51.8 °F 50.0 °F 94% 29.97 in 10.0 mi SSE 9.2 mph - N/A   Overcast
1:35 AM 53.6 °F 50.0 °F 88% 29.97 in 10.0 mi SSE 12.7 mph - N/A   Overcast
1:55 AM 53.6 °F 48.2 °F 82% 29.96 in 10.0 mi SSE 11.5 mph - N/A   Overcast
2:15 AM 53.6 °F 48.2 °F 82% 29.95 in 10.0 mi SSE 11.5 mph - N/A   Overcast
2:35 AM 53.6 °F 48.2 °F 82% 29.95 in 10.0 mi SSE 12.7 mph 18.4 mph N/A   Overcast
2:55 AM 53.6 °F 48.2 °F 82% 29.95 in 10.0 mi SSE 10.4 mph - N/A   Overcast
3:15 AM 51.8 °F 48.2 °F 88% 29.94 in 10.0 mi SSE 10.4 mph - N/A   Scattered Clouds
3:35 AM 51.8 °F 50.0 °F 94% 29.94 in 10.0 mi SSE 10.4 mph - N/A   Clear
3:55 AM 51.8 °F 50.0 °F 94% 29.95 in 10.0 mi SSE 6.9 mph - N/A   Clear
4:15 AM 51.8 °F 50.0 °F 94% 29.94 in 10.0 mi SSE 9.2 mph - N/A   Scattered Clouds
4:35 AM 51.8 °F 50.0 °F 94% 29.94 in 10.0 mi SSE 10.4 mph 16.1 mph N/A   Scattered Clouds
4:55 AM 51.8 °F 50.0 °F 94% 29.94 in 10.0 mi SSE 10.4 mph - N/A   Clear
5:15 AM 51.8 °F 50.0 °F 94% 29.94 in 10.0 mi SSE 9.2 mph - N/A   Clear
5:35 AM 51.8 °F 50.0 °F 94% 29.94 in 10.0 mi SSE 10.4 mph - N/A   Clear
5:55 AM 51.8 °F 50.0 °F 94% 29.95 in 10.0 mi SSE 9.2 mph - N/A   Clear
6:15 AM 51.8 °F 51.8 °F 100% 29.95 in 10.0 mi SSE 9.2 mph - N/A   Clear
6:35 AM 53.6 °F 51.8 °F 94% 29.95 in 10.0 mi SSE 11.5 mph - N/A   Clear
6:55 AM 51.8 °F 51.8 °F 100% 29.96 in 10.0 mi SSE 9.2 mph - N/A   Clear
7:15 AM 53.6 °F 51.8 °F 94% 29.96 in 10.0 mi SSE 9.2 mph - N/A   Clear
7:35 AM 53.6 °F 51.8 °F 94% 29.97 in 10.0 mi SSE 8.1 mph - N/A   Clear
7:55 AM 53.6 °F 51.8 °F 94% 29.98 in 10.0 mi SSE 9.2 mph - N/A   Clear
8:15 AM 53.6 °F 53.6 °F 100% 29.99 in 10.0 mi SSE 9.2 mph - N/A   Clear
8:35 AM 55.4 °F 53.6 °F 94% 29.97 in 10.0 mi South 13.8 mph - N/A   Clear
8:55 AM 55.4 °F 53.6 °F 94% 29.99 in 10.0 mi South 13.8 mph - N/A   Clear
9:15 AM 57.2 °F 55.4 °F 94% 30.00 in 10.0 mi South 12.7 mph - N/A   Scattered Clouds
9:35 AM 59.0 °F 55.4 °F 88% 30.01 in 10.0 mi South 16.1 mph - N/A   Scattered Clouds
9:55 AM 60.8 °F 55.4 °F 82% 30.02 in 10.0 mi South 19.6 mph 24.2 mph N/A   Scattered Clouds
10:15 AM 60.8 °F 55.4 °F 82% 30.00 in 10.0 mi South 20.7 mph - N/A   Clear
10:35 AM 62.6 °F 55.4 °F 77% 30.01 in 10.0 mi South 19.6 mph - N/A   Scattered Clouds
10:55 AM 62.6 °F 55.4 °F 77% 30.01 in 10.0 mi South 16.1 mph - N/A   Scattered Clouds
11:15 AM 64.4 °F 55.4 °F 73% 30.02 in 10.0 mi South 12.7 mph 18.4 mph N/A   Mostly Cloudy
11:35 AM 64.4 °F 55.4 °F 73% 30.01 in 10.0 mi South 12.7 mph - N/A   Overcast
11:55 AM 64.4 °F 55.4 °F 73% 30.01 in 10.0 mi South 15.0 mph - N/A   Overcast
12:15 PM 64.4 °F 55.4 °F 73% 30.00 in 10.0 mi South 16.1 mph - N/A   Overcast
12:35 PM 66.2 °F 55.4 °F 68% 29.99 in 10.0 mi South 13.8 mph - N/A   Mostly Cloudy
12:55 PM 64.4 °F 55.4 °F 73% 29.99 in 10.0 mi SSE 12.7 mph - N/A   Overcast
1:15 PM 64.4 °F 55.4 °F 73% 29.99 in 10.0 mi SSE 12.7 mph - N/A   Overcast
1:35 PM 64.4 °F 55.4 °F 73% 29.99 in 10.0 mi SSE 13.8 mph - N/A   Overcast
1:55 PM 64.4 °F 55.4 °F 73% 29.98 in 10.0 mi South 12.7 mph - N/A   Overcast
2:15 PM 64.4 °F 55.4 °F 73% 29.97 in 10.0 mi SSE 12.7 mph - N/A   Overcast
2:35 PM 62.6 °F 55.4 °F 77% 29.97 in 10.0 mi SSE 17.3 mph 20.7 mph N/A   Overcast
2:55 PM 62.6 °F 55.4 °F 77% 29.97 in 10.0 mi SE 12.7 mph - N/A   Overcast
3:15 PM 62.6 °F 55.4 °F 77% 29.97 in 10.0 mi SSE 12.7 mph - N/A   Overcast
3:35 PM 62.6 °F 55.4 °F 77% 29.98 in 10.0 mi SSE 12.7 mph - N/A   Overcast
3:55 PM 62.6 °F 55.4 °F 77% 29.99 in 10.0 mi SE 11.5 mph - N/A   Overcast
4:15 PM 62.6 °F 55.4 °F 77% 29.99 in 10.0 mi SE 9.2 mph - N/A   Overcast
4:35 PM 62.6 °F 55.4 °F 77% 29.99 in 10.0 mi SE 10.4 mph - N/A   Overcast
4:55 PM 60.8 °F 55.4 °F 82% 30.00 in 10.0 mi SSE 11.5 mph 17.3 mph N/A   Overcast
5:15 PM 60.8 °F 55.4 °F 82% 30.00 in 10.0 mi SSE 11.5 mph - N/A   Overcast
5:35 PM 60.8 °F 55.4 °F 82% 30.01 in 10.0 mi SE 11.5 mph - N/A   Mostly Cloudy
5:55 PM 59.0 °F 55.4 °F 88% 30.01 in 10.0 mi SSE 8.1 mph - N/A   Mostly Cloudy
6:15 PM 59.0 °F 55.4 °F 88% 30.01 in 10.0 mi SSE 12.7 mph 16.1 mph N/A   Overcast
6:35 PM 59.0 °F 55.4 °F 88% 30.02 in 10.0 mi SSE 11.5 mph 17.3 mph N/A   Overcast
6:55 PM 59.0 °F 55.4 °F 88% 30.02 in 10.0 mi SSE 12.7 mph 17.3 mph N/A   Overcast
7:15 PM 59.0 °F 57.2 °F 94% 30.02 in 10.0 mi SE 5.8 mph - N/A   Overcast
7:35 PM 59.0 °F 57.2 °F 94% 30.03 in 10.0 mi SE 9.2 mph - N/A   Overcast
7:55 PM 59.0 °F 57.2 °F 94% 30.03 in 10.0 mi SSE 10.4 mph 16.1 mph N/A   Mostly Cloudy
8:15 PM 59.0 °F 57.2 °F 94% 30.04 in 10.0 mi SSE 15.0 mph - N/A   Overcast
8:35 PM 59.0 °F 57.2 °F 94% 30.05 in 10.0 mi SSE 11.5 mph - N/A   Overcast
8:55 PM 59.0 °F 57.2 °F 94% 30.05 in 10.0 mi SSE 9.2 mph - N/A   Mostly Cloudy
9:15 PM 59.0 °F 57.2 °F 94% 30.05 in 10.0 mi SE 11.5 mph - N/A   Overcast
9:35 PM 59.0 °F 57.2 °F 94% 30.05 in 10.0 mi SE 10.4 mph - N/A   Overcast
9:55 PM 59.0 °F 57.2 °F 94% 30.05 in 10.0 mi SE 9.2 mph 16.1 mph N/A   Overcast
10:15 PM 59.0 °F 59.0 °F 100% 30.05 in 10.0 mi SSE 13.8 mph 17.3 mph N/A   Overcast
10:35 PM 59.0 °F 59.0 °F 100% 30.05 in 10.0 mi SE 9.2 mph - N/A   Overcast
10:55 PM 59.0 °F 59.0 °F 100% 30.05 in 10.0 mi SE 11.5 mph 18.4 mph N/A   Overcast
11:15 PM 59.0 °F 59.0 °F 100% 30.04 in 10.0 mi SE 13.8 mph - N/A   Overcast
11:35 PM 59.0 °F 59.0 °F 100% 30.04 in 10.0 mi SSE 12.7 mph - N/A   Overcast
11:55 PM 59.0 °F 59.0 °F 100% 30.03 in 10.0 mi SSE 12.7 mph - N/A   Overcast